Regional Weather Roundup
Issued by NWS

Home | Current Version | Previous Version | Graphics & Text | Print | Product List | Glossary Off
Versions: 1 2 3 4 5 6 7 8 9 10 11 12 13 14 15 16 17 18 19 20 21 22 23 24 25 26 27 28 29 30 31 32 33 34 35 36 37 38 39 40 41 42 43 44 45 46 47 48 49 50

000
ASUS43 KTOP 250608
RWRKS

WEATHER ROUNDUP FOR KANSAS
NATIONAL WEATHER SERVICE GOODLAND KS
100 AM CDT SAT OCT 25 2014

NOTE:  "FAIR" INDICATES FEW OR NO CLOUDS BELOW 12,000 FEET WITH NO
SIGNIFICANT WEATHER AND/OR OBSTRUCTIONS TO VISIBILITY.

KSZ001>006-013>018-027>032-041>047-250700-
NORTHWEST KANSAS

CITY           SKY/WX    TMP DP  RH WIND       PRES   REMARKS
GOODLAND       CLEAR     49  37  63 SW6       30.13R
6HR MIN TEMP:  46; 6HR MAX TEMP:  73;

HAYS           CLEAR     61  48  63 CALM      30.04S
HILL CITY      CLEAR     50  42  74 CALM      30.05S
6HR MIN TEMP:  50; 6HR MAX TEMP:  74;

RUSSELL        CLEAR     61  54  77 SW10      30.02S
6HR MIN TEMP:  58; 6HR MAX TEMP:  74;

$$

KSZ061>065-074>080-084>089-250700-
SOUTHWEST KANSAS

CITY           SKY/WX    TMP DP  RH WIND       PRES   REMARKS
DODGE CITY     CLEAR     61  49  64 S8        30.08S
6HR MIN TEMP:  59; 6HR MAX TEMP:  74;

ELKHART          N/A     68  38  33 SW8         N/A
GARDEN CITY    CLEAR     59  43  55 S7        30.08F
6HR MIN TEMP:  59; 6HR MAX TEMP:  77;

GREAT BEND     CLEAR     61  54  77 SW7       30.04S
LIBERAL        CLEAR     55  41  58 W6        30.11S
PRATT          CLEAR     55  54  94 SW5       30.06S
$$

KSZ066>073-081>083-090>101-250700-
SOUTHEAST KANSAS

CITY           SKY/WX    TMP DP  RH WIND       PRES   REMARKS
CHANUTE        CLEAR     62  60  93 S5        30.02S
6HR MIN TEMP:  61; 6HR MAX TEMP:  68;

COFFEYVILLE    CLEAR     62  60  93 S6        30.02F
6HR MIN TEMP:  62; 6HR MAX TEMP:  69;

HUTCHINSON     CLEAR     64  59  83 CALM      30.02S
6HR MIN TEMP:  59; 6HR MAX TEMP:  73;

MEDICINE LODGE   N/A     58  57  97 CALM      30.04S
NEWTON         CLEAR     64  55  72 SW6       30.05R
PARSONS        CLEAR     62  60  93 S5        30.03F
6HR MIN TEMP:  62; 6HR MAX TEMP:  70;

WICHITA INTL   CLEAR     58  56  93 S5        30.02S FOG
6HR MIN TEMP:  58; 6HR MAX TEMP:  74;

WICHITA JABRA  CLEAR     67  60  78 SW8       30.02S
6HR MIN TEMP:  66; 6HR MAX TEMP:  73;

WICHITA MCCONL CLEAR     61  61 100 S7        30.02F
WINFIELD       CLEAR     64  60  87 SW6       30.03F
6HR MIN TEMP:  64; 6HR MAX TEMP:  73;

$$

KSZ007>012-019>026-033>040-048>060-102>105-250700-
NORTHEAST KANSAS

CITY           SKY/WX    TMP DP  RH WIND       PRES   REMARKS
CONCORDIA      CLEAR     60  51  72 CALM      30.03R
6HR MIN TEMP:  57; 6HR MAX TEMP:  71;

EMPORIA        CLEAR     65  61  87 SW6       30.01R
6HR MIN TEMP:  61; 6HR MAX TEMP:  71;

LAWRENCE       FOG       56  54  93 SE3       30.00S VSB 1
6HR MIN TEMP:  55; 6HR MAX TEMP:  70;

MANHATTAN      CLEAR     57  57 100 CALM      30.01R FOG
6HR MIN TEMP:  56; 6HR MAX TEMP:  71;

MARYSVILLE     CLEAR     54  54 100 CALM      30.02R FOG
OLATHE IND     CLEAR     61  59  93 SW6       30.02R
6HR MIN TEMP:  58; 6HR MAX TEMP:  70;

OLATHE EXE     CLEAR     62  61  96 SW3       30.00S
6HR MIN TEMP:  61; 6HR MAX TEMP:  71;

SALINA         CLEAR     63  59  87 CALM      30.01S
6HR MIN TEMP:  60; 6HR MAX TEMP:  76;

TOPEKA BILLARD FOG       57  56  96 N3        30.00S VSB 1/2
6HR MIN TEMP:  56; 6HR MAX TEMP:  74;

TOPEKA FORBES  CLEAR     60  57  89 W5        30.01R
6HR MIN TEMP:  59; 6HR MAX TEMP:  70;

$$



USA.gov is the U.S. government's official web portal to all federal, state and local government web resources and services.